TimeCDT,TemperatureF,Dew PointF,Humidity,Sea Level PressureIn,VisibilityMPH,Wind Direction,Wind SpeedMPH,Gust SpeedMPH,PrecipitationIn,Events,Conditions,WindDirDegrees,DateUTC
12:10 AM,38.7,22.1,51,30.22,10.0,WNW,5.8,-,N/A,,Overcast,300,2012-10-07 05:10:00
12:30 AM,38.7,22.5,52,30.22,10.0,WNW,5.8,-,N/A,,Overcast,290,2012-10-07 05:30:00
12:50 AM,38.8,22.3,51,30.21,10.0,WNW,5.8,-,N/A,,Overcast,290,2012-10-07 05:50:00
1:10 AM,38.8,22.1,51,30.21,10.0,WNW,5.8,-,N/A,,Overcast,300,2012-10-07 06:10:00
1:30 AM,38.3,22.8,54,30.21,10.0,WNW,5.8,-,N/A,,Overcast,300,2012-10-07 06:30:00
1:50 AM,38.3,21.9,52,30.21,10.0,West,5.8,-,N/A,,Overcast,280,2012-10-07 06:50:00
2:10 AM,37.9,22.1,53,30.21,10.0,WNW,6.9,-,N/A,,Overcast,290,2012-10-07 07:10:00
2:30 AM,38.3,22.1,52,30.21,10.0,West,6.9,-,N/A,,Overcast,280,2012-10-07 07:30:00
2:50 AM,37.4,21.9,54,30.20,10.0,WNW,6.9,-,N/A,,Overcast,290,2012-10-07 07:50:00
3:10 AM,36.7,22.1,56,30.20,10.0,WNW,6.9,-,N/A,,Overcast,290,2012-10-07 08:10:00
3:50 AM,33.1,21.6,63,30.19,10.0,WNW,5.8,-,N/A,,Scattered Clouds,300,2012-10-07 08:50:00
4:10 AM,32.7,21.7,64,30.19,10.0,WNW,9.2,-,N/A,,Clear,290,2012-10-07 09:10:00
4:30 AM,32.0,21.2,64,30.19,10.0,WNW,6.9,-,N/A,,Clear,290,2012-10-07 09:30:00
4:50 AM,31.8,21.0,64,30.19,10.0,WNW,8.1,-,N/A,,Clear,290,2012-10-07 09:50:00
5:10 AM,31.1,20.8,66,30.19,10.0,WNW,6.9,-,N/A,,Clear,290,2012-10-07 10:10:00
5:30 AM,30.7,20.3,65,30.19,10.0,WNW,8.1,-,N/A,,Clear,290,2012-10-07 10:30:00
5:50 AM,30.2,20.5,67,30.18,10.0,WNW,4.6,-,N/A,,Clear,290,2012-10-07 10:50:00
6:10 AM,30.2,20.3,67,30.19,10.0,West,4.6,-,N/A,,Clear,280,2012-10-07 11:10:00
6:30 AM,29.7,19.9,67,30.19,10.0,West,4.6,-,N/A,,Clear,270,2012-10-07 11:30:00
6:51 AM,29.8,20.3,68,30.18,10.0,West,3.5,-,N/A,,Clear,270,2012-10-07 11:51:00
7:10 AM,29.3,20.1,69,30.18,10.0,West,4.6,-,N/A,,Clear,280,2012-10-07 12:10:00
7:30 AM,29.3,20.1,69,30.19,10.0,West,3.5,-,N/A,,Clear,270,2012-10-07 12:30:00
7:50 AM,30.4,20.7,67,30.19,10.0,Calm,Calm,-,N/A,,Clear,0,2012-10-07 12:50:00
8:10 AM,32.2,22.3,67,30.19,10.0,West,3.5,-,N/A,,Clear,260,2012-10-07 13:10:00
8:30 AM,34.7,23.4,63,30.19,10.0,West,4.6,-,N/A,,Clear,270,2012-10-07 13:30:00
8:50 AM,36.5,23.4,59,30.19,10.0,West,4.6,-,N/A,,Clear,260,2012-10-07 13:50:00
9:10 AM,38.1,23.2,55,30.20,10.0,West,5.8,-,N/A,,Clear,260,2012-10-07 14:10:00
9:30 AM,40.3,22.8,50,30.20,10.0,West,6.9,-,N/A,,Clear,260,2012-10-07 14:30:00
9:50 AM,42.8,22.6,45,30.19,10.0,West,6.9,-,N/A,,Clear,270,2012-10-07 14:50:00
10:10 AM,43.9,21.4,41,30.19,10.0,West,8.1,-,N/A,,Clear,270,2012-10-07 15:10:00
10:30 AM,44.8,20.1,37,30.19,10.0,West,9.2,-,N/A,,Clear,280,2012-10-07 15:30:00
10:50 AM,45.9,19.0,34,30.18,10.0,WSW,10.4,-,N/A,,Clear,250,2012-10-07 15:50:00
11:10 AM,46.6,17.1,31,30.18,10.0,SW,9.2,18.4,N/A,,Clear,230,2012-10-07 16:10:00
11:30 AM,47.3,16.0,29,30.18,10.0,WSW,11.5,19.6,N/A,,Clear,240,2012-10-07 16:30:00
11:51 AM,47.3,15.4,28,30.17,10.0,West,9.2,19.6,N/A,,Clear,270,2012-10-07 16:51:00
12:10 PM,47.5,15.4,28,30.17,10.0,West,15.0,25.3,N/A,,Clear,270,2012-10-07 17:10:00
12:30 PM,49.1,14.5,25,30.16,10.0,West,8.1,-,N/A,,Clear,270,2012-10-07 17:30:00
12:50 PM,49.3,14.0,24,30.15,10.0,WSW,12.7,17.3,N/A,,Clear,250,2012-10-07 17:50:00
1:30 PM,50.0,13.1,23,30.13,10.0,SW,11.5,25.3,N/A,,Clear,230,2012-10-07 18:30:00
1:50 PM,51.3,11.7,21,30.12,10.0,West,10.4,20.7,N/A,,Clear,260,2012-10-07 18:50:00
2:10 PM,50.9,11.3,20,30.10,10.0,WSW,11.5,18.4,N/A,,Clear,250,2012-10-07 19:10:00
2:30 PM,51.1,10.2,19,30.10,10.0,West,13.8,-,N/A,,Clear,270,2012-10-07 19:30:00
2:50 PM,51.8,9.9,19,30.09,10.0,WSW,16.1,20.7,N/A,,Clear,240,2012-10-07 19:50:00
3:10 PM,52.0,10.0,19,30.09,10.0,WSW,9.2,16.1,N/A,,Clear,240,2012-10-07 20:10:00
3:30 PM,52.0,9.7,18,30.07,10.0,West,11.5,19.6,N/A,,Clear,270,2012-10-07 20:30:00
3:50 PM,51.8,10.0,19,30.07,10.0,SW,13.8,-,N/A,,Clear,230,2012-10-07 20:50:00
4:10 PM,51.8,10.6,19,30.06,10.0,SW,11.5,18.4,N/A,,Clear,220,2012-10-07 21:10:00
4:31 PM,52.2,11.5,20,30.05,10.0,SW,15.0,-,N/A,,Clear,220,2012-10-07 21:31:00
4:50 PM,51.8,10.6,19,30.05,10.0,WSW,13.8,19.6,N/A,,Clear,240,2012-10-07 21:50:00
5:10 PM,51.8,11.1,20,30.04,10.0,SSW,11.5,-,N/A,,Clear,210,2012-10-07 22:10:00
5:30 PM,51.3,11.7,21,30.04,10.0,SW,12.7,-,N/A,,Clear,220,2012-10-07 22:30:00
5:50 PM,50.9,12.4,21,30.04,10.0,SW,10.4,-,N/A,,Clear,230,2012-10-07 22:50:00
6:10 PM,50.0,12.2,22,30.03,10.0,SW,5.8,-,N/A,,Clear,220,2012-10-07 23:10:00
6:30 PM,48.2,13.1,24,30.02,10.0,SSW,5.8,-,N/A,,Clear,200,2012-10-07 23:30:00
6:50 PM,46.9,13.1,26,30.02,10.0,South,5.8,-,N/A,,Clear,190,2012-10-07 23:50:00
7:10 PM,45.7,13.1,27,30.02,7.0,South,5.8,-,N/A,,Clear,190,2012-10-08 00:10:00
7:30 PM,44.8,13.5,28,30.02,10.0,SSW,4.6,-,N/A,,Clear,200,2012-10-08 00:30:00
7:50 PM,43.9,14.2,30,30.02,10.0,SSW,4.6,-,N/A,,Clear,200,2012-10-08 00:50:00
8:10 PM,43.0,14.9,32,30.02,10.0,SSW,5.8,-,N/A,,Clear,200,2012-10-08 01:10:00
8:30 PM,42.1,15.8,35,30.02,10.0,SSW,5.8,-,N/A,,Clear,210,2012-10-08 01:30:00
8:51 PM,42.1,15.8,35,30.01,10.0,SSW,5.8,-,N/A,,Clear,200,2012-10-08 01:51:00
9:10 PM,41.9,15.8,35,30.01,10.0,SSW,4.6,-,N/A,,Clear,210,2012-10-08 02:10:00
9:30 PM,41.4,16.5,37,30.01,10.0,SSW,6.9,-,N/A,,Clear,210,2012-10-08 02:30:00
9:51 PM,41.9,17.1,37,30.01,10.0,SSW,8.1,-,N/A,,Clear,200,2012-10-08 02:51:00
10:10 PM,42.3,17.2,37,30.01,10.0,SSW,9.2,-,N/A,,Clear,200,2012-10-08 03:10:00
10:31 PM,42.3,17.4,37,30.00,10.0,SSW,9.2,-,N/A,,Clear,200,2012-10-08 03:31:00
10:50 PM,42.3,17.6,37,30.00,10.0,SSW,11.5,-,N/A,,Clear,200,2012-10-08 03:50:00
11:10 PM,42.4,17.6,37,30.00,10.0,SSW,9.2,-,N/A,,Clear,200,2012-10-08 04:10:00
11:31 PM,42.3,18.0,38,29.99,10.0,SSW,9.2,-,N/A,,Clear,200,2012-10-08 04:31:00
11:50 PM,42.1,18.1,38,29.99,10.0,SSW,11.5,-,N/A,,Clear,200,2012-10-08 04:50:00